MDT,Max TemperatureF,Mean TemperatureF,Min TemperatureF,Max Dew PointF,MeanDew PointF,Min DewpointF,Max Humidity, Mean Humidity, Min Humidity, Max Sea Level PressureIn, Mean Sea Level PressureIn, Min Sea Level PressureIn, Max VisibilityMiles, Mean VisibilityMiles, Min VisibilityMiles, Max Wind SpeedMPH, Mean Wind SpeedMPH, Max Gust SpeedMPH,PrecipitationIn, CloudCover, Events, WindDirDegrees
2011-10-1,84,72,59,38,37,35,42,29,19,30.19,30.00,29.92,10,10,10,8,3,,0.00,1,,116
2011-10-2,79,70,60,41,40,37,47,36,26,30.20,30.03,29.96,10,10,10,14,5,20,0.00,2,,184
2011-10-3,82,68,55,44,42,38,53,39,22,30.17,29.96,29.86,10,10,10,9,3,,0.00,3,,131
2011-10-4,70,63,57,54,47,40,88,55,41,30.02,29.88,29.76,10,9,2,24,9,36,0.06,5,Rain-Thunderstorm,133
2011-10-5,64,58,52,49,43,36,89,58,34,29.85,29.68,29.51,10,10,10,23,14,28,0.03,6,Rain,170
2011-10-6,57,48,39,49,37,29,100,68,43,29.88,29.61,29.37,10,9,2,33,15,43,0.18,6,Rain-Thunderstorm,221
2011-10-7,54,42,30,36,30,22,96,63,32,30.01,29.97,29.91,10,10,10,13,3,18,0.00,0,,306
2011-10-8,52,46,39,40,37,31,93,77,58,30.18,30.07,29.95,10,10,9,9,3,,0.03,7,Rain,332
2011-10-9,59,46,34,36,33,31,92,65,37,30.17,30.10,30.04,10,10,10,7,1,,0.00,0,,302
2011-10-10,64,49,34,38,33,28,92,55,27,30.10,29.99,29.88,10,10,10,8,2,,0.00,2,,99
2011-10-11,70,58,45,40,36,33,76,45,26,29.99,29.91,29.84,10,10,10,12,4,18,0.00,1,,221
2011-10-12,71,56,42,37,28,15,70,41,12,30.20,30.09,29.98,10,10,10,12,2,16,0.00,0,,288
2011-10-13,73,56,39,29,24,19,55,33,13,30.20,30.07,29.97,10,10,10,7,1,,0.00,0,,274
2011-10-14,79,60,41,30,27,25,57,34,15,30.09,30.01,29.93,10,10,10,9,2,,0.00,0,,234
2011-10-15,82,64,46,32,29,26,56,32,15,30.15,29.99,29.86,10,10,10,10,3,,0.00,0,,173
2011-10-16,82,62,44,31,26,23,53,27,12,30.05,29.92,29.80,10,10,10,14,3,,0.00,0,,280
2011-10-17,70,60,50,37,27,19,55,29,19,30.17,30.05,29.80,10,10,10,22,11,30,0.00,0,,298
2011-10-18,66,52,39,27,21,19,53,31,17,30.30,30.23,30.17,10,10,10,15,4,24,0.00,0,,23
2011-10-19,69,55,42,21,18,16,40,27,14,30.15,30.03,29.91,10,10,10,12,4,,0.00,0,,270
2011-10-20,72,54,37,25,20,16,44,29,14,30.12,30.05,29.98,10,10,10,8,2,,0.00,0,,271
2011-10-21,73,55,37,24,23,20,48,30,16,30.23,30.12,30.06,10,10,10,7,2,,0.00,0,,247
2011-10-22,72,54,37,27,24,20,50,32,17,30.22,30.16,30.10,10,10,9,10,2,,0.00,0,,264
2011-10-23,72,54,36,27,24,21,57,35,18,30.29,30.14,30.06,10,10,10,7,2,,0.00,0,,266
2011-10-24,75,56,37,25,23,18,49,28,13,30.14,29.99,29.84,10,10,10,17,3,23,0.00,0,,203
2011-10-25,72,59,46,48,35,21,88,50,23,30.00,29.89,29.78,10,10,7,33,9,43,0.16,5,Rain-Thunderstorm,275
2011-10-26,50,44,37,45,37,23,93,77,51,30.14,30.02,29.91,10,8,2,20,5,17,0.51,7,Rain,360
2011-10-27,48,39,30,32,26,21,85,64,36,30.24,30.19,30.14,10,10,10,7,2,,0.00,0,,290
2011-10-28,53,40,28,33,29,26,92,69,41,30.40,30.31,30.25,10,10,10,7,2,,0.00,0,,262
2011-10-29,54,40,28,34,30,27,92,69,40,30.31,30.24,30.17,10,10,10,8,2,,0.00,0,,306
2011-10-30,61,44,28,33,29,26,92,63,29,30.35,30.27,30.22,10,10,10,8,1,,0.00,0,,223
2011-10-31,63,48,34,34,31,28,85,59,30,30.22,30.12,29.99,10,10,10,8,2,,0.00,0,,248